Tracking 30101 objects as of 14-Dec-2024
HD Live streaming from Space Station
objects crossing your sky now

STARLINK-6239

Track STARLINK-6239 now!
10-day predictions
STARLINK-6239 is classified as:


NORAD ID: 56423
Int'l Code: 2023-061BB
Perigee: 565.3 km
Apogee: 567.1 km
Inclination: 43.0 °
Period: 95.8 minutes
Semi major axis: 6937 km
RCS: Unknown
Launch date: May 4, 2023
Source: United States (US)
Launch site: AIR FORCE EASTERN TEST RANGE (AFETR)
Your satellite tracking list
Your tracking list is empty




NASA's NSSDC Master Catalog

Two Line Element Set (TLE):
1 56423U 23061BB  24347.71024319  .00000514  00000-0  53134-4 0  9999
2 56423  43.0039 107.5268 0001247 268.1755  91.8945 15.02538434 89062
Source of the keplerian elements: AFSPC